Weather History for Millville, NJ

Change the Weather History Date:

Friday, February 7, 2014

  Actual Average Record
Temperature  
Mean Temperature 28 °F -  
Max Temperature 39 °F 38 °F 61 °F (2008)
Min Temperature 18 °F 22 °F 5 °F (1993)
Degree Days  
Heating Degree Days 36    
Moisture  
Dew Point 20 °F    
Average Humidity 75    
Maximum Humidity 96    
Minimum Humidity 46    
Precipitation  
Precipitation 0.00 in - - ()
Sea Level Pressure  
Sea Level Pressure 30.31 in    
Wind  
Wind Speed 2 mph (West)    
Max Wind Speed 10 mph    
Max Gust Speed 17 mph    
Visibility 10 miles    
Events      
Averages and records for this station are not official NWS values.
T = Trace of Precipitation, MM = Missing Value Source: NWS Daily Summary

Daily Weather History Graph

Daily Weather History Graph

Search for Another Location

Airport:

Trip Planner

Search our weather history database for the weather conditions in past years. The results will help you decide how hot, cold, wet, or windy it might be!

Date:

Astronomy

Feb. 07, 2014 Rise Set
Actual Time 7:01 AM EST 5:27 PM EST
Civil Twilight 6:33 AM EST 5:55 PM EST
Nautical Twilight 6:01 AM EST 6:27 PM EST
Astronomical Twilight 5:30 AM EST 6:58 PM EST
Moon 11:37 AM EST (2/7) 1:14 AM EST (2/7)
Length of Visible Light 11h 22m
Length of Day
10h 26m
First Quarter, 59% of the Moon is Illuminated
Feb 7
First Quarter
Feb 14
Full
Feb 22
Last Quarter
Mar 1
New
Mar 8
First Quarter

Hourly Weather History & Observations

Time (EST) Temp. Windchill Dew Point Humidity Pressure Visibility Wind Dir Wind Speed Gust Speed Precip Events Conditions
12:54 AM 24.1 °F 19.7 °F 21.0 °F 88% 30.28 in 10.0 mi West 3.5 mph - N/A   Partly Cloudy
1:54 AM 24.1 °F - 21.0 °F 88% 30.29 in 10.0 mi Calm Calm - N/A   Partly Cloudy
2:54 AM 21.0 °F - 19.0 °F 92% 30.29 in 10.0 mi Calm Calm - N/A   Scattered Clouds
3:54 AM 19.9 °F - 18.0 °F 92% 30.30 in 10.0 mi Calm Calm - N/A   Partly Cloudy
4:54 AM 21.0 °F - 19.0 °F 92% 30.30 in 9.0 mi Calm Calm - N/A   Mostly Cloudy
5:54 AM 19.0 °F - 18.0 °F 96% 30.31 in 9.0 mi Calm Calm - N/A   Partly Cloudy
6:54 AM 18.0 °F - 16.0 °F 92% 30.33 in 8.0 mi Calm Calm - N/A   Clear
7:54 AM 21.0 °F - 18.0 °F 88% 30.37 in 7.0 mi Calm Calm - N/A   Clear
8:54 AM 30.0 °F - 21.0 °F 69% 30.36 in 10.0 mi Calm Calm - N/A   Clear
9:54 AM 32.0 °F 26.4 °F 18.0 °F 56% 30.35 in 10.0 mi WNW 5.8 mph - N/A   Clear
10:54 AM 35.1 °F 30.1 °F 19.0 °F 52% 30.35 in 10.0 mi Variable 5.8 mph - N/A   Clear
11:54 AM 37.0 °F 30.4 °F 19.9 °F 50% 30.32 in 10.0 mi WNW 9.2 mph - N/A   Clear
12:54 PM 37.9 °F 33.5 °F 19.9 °F 48% 30.28 in 10.0 mi West 5.8 mph - N/A   Clear
1:54 PM 39.0 °F 35.7 °F 21.0 °F 49% 30.26 in 10.0 mi WNW 4.6 mph 17.3 mph N/A   Clear
2:54 PM 39.0 °F 32.3 °F 19.9 °F 46% 30.27 in 10.0 mi WSW 10.4 mph - N/A   Clear
3:54 PM 37.0 °F 32.4 °F 19.9 °F 50% 30.26 in 10.0 mi West 5.8 mph - N/A   Clear
4:54 PM 35.1 °F 30.1 °F 21.0 °F 57% 30.27 in 10.0 mi WSW 5.8 mph - N/A   Clear
5:54 PM 30.9 °F - 23.0 °F 72% 30.31 in 10.0 mi Calm Calm - N/A   Clear
6:54 PM 26.1 °F - 21.9 °F 84% 30.33 in 10.0 mi Calm Calm - N/A   Clear
7:54 PM 27.0 °F - 23.0 °F 85% 30.33 in 10.0 mi Calm Calm - N/A   Clear
8:54 PM 26.1 °F - 21.9 °F 84% 30.33 in 10.0 mi Calm Calm - N/A   Clear
9:54 PM 21.9 °F - 19.9 °F 92% 30.33 in 8.0 mi Calm Calm - N/A   Clear
10:54 PM 21.0 °F - 19.0 °F 92% 30.33 in 8.0 mi Calm Calm - N/A   Clear
11:54 PM 19.0 °F - 18.0 °F 96% 30.34 in 8.0 mi Calm Calm - N/A   Clear